Terminal Aerodrome Forecast
Issued by NWS

Home | Current Version | Previous Version | Text Only | Print | Product List | Glossary On
Versions: 1 2 3 4 5 6 7 8 9 10 11 12 13 14
000
FTUS42 KTBW 222000 AAA
TAFPGD
TAF AMD
KPGD 222045Z 2221/2318 30006KT P6SM VCTS SCT040CB BKN100
      TEMPO 2221/2222 5SM -RA BKN040
     FM222200 30006KT P6SM SCT040 SCT130 BKN250
     FM230100 VRB03KT P6SM SCT035 BKN250
     FM231400 22005KT P6SM SCT020 SCT250=

USA.gov is the U.S. government's official web portal to all federal, state and local government web resources and services.